Retour au catalogue

ONEWEB-0206

ActifCommunicationsPO
NORAD 48227·PAYLOAD·🇬🇧 United Kingdom

Lancé Apr 25, 2021 depuis Vostochny Cosmodrome

Loading…

Prochains Passages (prochaines 24 heures)

TLE

FraisSource: CelesTrak SupGP

Époque: Sep 14, 2026, 15:30 UTC

1 48227C 21031T   26257.64633519 -.00002615  00000+0 -70620-2 0  2578
2 48227  87.8908 271.8599 0002083  91.9230  10.4015 13.14507829    15

Suivez ONEWEB-0206 en temps réel avec AllMySat

Download on the App Store